Weather History for Puerto Limon, Costa Rica

Change the Weather History Date:

Friday, July 19, 2013

  Actual Average Record
Temperature  
Mean Temperature 78 °F -  
Max Temperature 83 °F 82 °F 86 °F (2003)
Min Temperature 74 °F 74 °F 71 °F (2011)
Cooling Degree Days 14    
Growing Degree Days 28 (Base 50)    
Moisture  
Dew Point 75 °F    
Average Humidity 83    
Maximum Humidity 94    
Minimum Humidity 74    
Precipitation  
Precipitation 0.02 in 0.44 in - ()
Sea Level Pressure  
Sea Level Pressure 29.88 in    
Wind  
Wind Speed 5 mph ()    
Max Wind Speed 10 mph    
Max Gust Speed -    
Visibility 7.0 miles    
Events Rain    
Averages and records for this station are not official NWS values.
T = Trace of Precipitation, MM = Missing Value Source: Averaged Metar Reports

Daily Weather History Graph

Daily Weather History Graph

Search for Another Location

Airport:

Trip Planner

Search our weather history database for the weather conditions in past years. The results will help you decide how hot, cold, wet, or windy it might be!

Date:

Astronomy

Jul. 19, 2013 Rise Set
Actual Time 5:19 AM CST 5:57 PM CST
Civil Twilight 4:56 AM CST 6:19 PM CST
Nautical Twilight 4:30 AM CST 6:46 PM CST
Astronomical Twilight 4:03 AM CST 7:13 PM CST
Moon 2:59 PM CST (7/19) 1:56 AM CST (7/19)
Length of Visible Light 13h 22m
Length of Day
12h 37m
Waxing Gibbous, 87% of the Moon is Illuminated
Jul 19
Waxing Gibbous
Jul 22
Full
Jul 29
Last Quarter
Aug 6
New
Aug 14
First Quarter

Hourly Weather History & Observations

Time (CST) Temp. Heat Index Dew Point Humidity Pressure Visibility Wind Dir Wind Speed Gust Speed Precip Events Conditions
6:00 AM 75 °F - 73 °F 93% 29.88 in 8 mi WSW 5.8 mph - - Rain Light Rain
6:00 AM 75.2 °F - 73.4 °F 94% 29.87 in 6.2 mi WSW 5.8 mph - N/A Rain Rain
7:00 AM 75.2 °F - 73.4 °F 94% 29.88 in 6.2 mi West 3.5 mph - N/A   Scattered Clouds
8:00 AM 78.8 °F - 77.0 °F 94% 29.91 in 6.2 mi West 2.3 mph - N/A   Scattered Clouds
9:00 AM 81 °F - 76 °F 81% 29.94 in 9 mi WNW 4.6 mph - -   Overcast
9:00 AM 80.6 °F 87.1 °F 77.0 °F 89% 29.93 in 6.2 mi WNW 4.6 mph - N/A   Mostly Cloudy
10:00 AM 80.6 °F 86.2 °F 75.2 °F 84% 29.93 in 6.2 mi NW 4.6 mph - N/A   Scattered Clouds
11:00 AM 82.4 °F 90.9 °F 77.0 °F 84% 29.92 in 6.2 mi WNW 4.6 mph - N/A   Scattered Clouds
12:00 PM 82 °F - 75 °F 74% 29.92 in 9 mi NNW 10.4 mph - -   Overcast
12:00 PM 82.4 °F 89.5 °F 75.2 °F 79% 29.92 in 6.2 mi NNW 10.4 mph - N/A   Scattered Clouds
1:00 PM 82.4 °F 89.5 °F 75.2 °F 79% 29.90 in 6.2 mi NNW 9.2 mph - N/A   Mostly Cloudy
2:00 PM 82.4 °F 88.2 °F 73.4 °F 74% 29.87 in 6.2 mi NW 8.1 mph - N/A   Scattered Clouds
3:00 PM 81 °F - 74 °F 74% 29.85 in 9 mi NW 3.5 mph - -   Haze
3:00 PM 80.6 °F 85.4 °F 73.4 °F 79% 29.83 in 6.2 mi NW 3.5 mph - N/A   Mostly Cloudy
4:00 PM 80.6 °F 86.2 °F 75.2 °F 84% 29.81 in - WNW 4.6 mph - N/A   Clear
5:00 PM 80.6 °F 85.4 °F 73.4 °F 79% 29.83 in - NNW 9.2 mph - N/A   Clear
5:58 PM 78.8 °F - 73.4 °F 83% 29.82 in 6.2 mi West 5.8 mph - N/A   Mostly Cloudy
6:00 PM 79 °F - 74 °F 81% 29.87 in 9 mi West 5.8 mph - -   Overcast
6:00 PM 78.8 °F - 73.4 °F 83% 29.82 in 6.2 mi West 5.8 mph - N/A   Mostly Cloudy